This is the latest recevied weather packets stored in our database for station/object KB0RPJ. If no packets are shown the sender has not sent any weather packets the latest 10 day(s).
| Time | Temp. | Humidity | Pressure | Rain* | Wind** | Luminosity | Snow |
|---|---|---|---|---|---|---|---|
| 1777835704 | 22.78° C | 45% | 1009.9 hPa | 0 mm | - | 869 W/m² | - |
| 1777835406 | 22.22° C | 42% | 1009.8 hPa | 0 mm | - | 638 W/m² | - |
| 1777835108 | 22.22° C | 42% | 1009.9 hPa | 0 mm | - | 697 W/m² | - |
| 1777834804 | 22.22° C | 42% | 1009.9 hPa | 0 mm | - | 777 W/m² | - |
| 1777834505 | 21.67° C | 42% | 1010 hPa | 0 mm | - | 668 W/m² | - |
| 1777834207 | 21.67° C | 44% | 1010.1 hPa | 0 mm | - | 691 W/m² | - |
| 1777833904 | 21.67° C | 43% | 1010.1 hPa | 0 mm | - | 590 W/m² | - |
| 1777833605 | 21.67° C | 42% | 1010.2 hPa | 0 mm | - | 627 W/m² | - |
| 1777833304 | 21.67° C | 44% | 1010.3 hPa | 0 mm | - | 480 W/m² | - |
| 1777833006 | 21.67° C | 43% | 1010.4 hPa | 0 mm | - | 499 W/m² | - |
| 1777832704 | 21.67° C | 43% | 1010.4 hPa | 0 mm | - | 619 W/m² | - |
| 1777832406 | 21.67° C | 42% | 1010.4 hPa | 0 mm | - | 647 W/m² | - |
| 1777832105 | 21.11° C | 45% | 1010.5 hPa | 0 mm | - | 819 W/m² | - |
| 1777831805 | 21.11° C | 42% | 1010.5 hPa | 0 mm | - | 709 W/m² | - |
| 1777831505 | 21.11° C | 43% | 1010.6 hPa | 0 mm | - | 803 W/m² | - |
| 1777831205 | 21.11° C | 45% | 1010.8 hPa | 0 mm | - | 776 W/m² | - |
| 1777830905 | 21.11° C | 45% | 1010.9 hPa | 0 mm | - | 719 W/m² | - |
| 1777830605 | 21.11° C | 46% | 1011 hPa | 0 mm | - | 809 W/m² | - |
| 1777830305 | 20.56° C | 45% | 1011.1 hPa | 0 mm | - | 862 W/m² | - |
| 1777830006 | 20.56° C | 44% | 1011.1 hPa | 0 mm | - | 665 W/m² | - |
| 1777829704 | 20.56° C | 45% | 1011.2 hPa | 0 mm | - | 504 W/m² | - |
| 1777829406 | 20.56° C | 45% | 1011.2 hPa | 0 mm | - | 777 W/m² | - |
| 1777829119 | 20.56° C | 46% | 1011.3 hPa | 0 mm | - | 834 W/m² | - |
| 1777828805 | 20° C | 44% | 1011.3 hPa | 0 mm | - | 730 W/m² | - |
| 1777828516 | 20° C | 45% | 1011.3 hPa | 0 mm | - | 742 W/m² | - |
* Rain latest hour (hover to see other rain measurements)
** Current wind speed in m/s (hover to see current wind gust speed)